DW8828 Weather Reports


Display with metric or nautical units.
time (UTC)temp
F
wind
direction
speed
MPH
gust
MPH
rain 1hr
in
rain 24hr
in
rain mn
in
humidity
%
barometer
mb
20240521161819 80 247 6.0 18.0 0.00 0.00 0.00 74 1008.0
20240521161318 80 224 4.0 18.0 0.00 0.00 0.00 75 1008.0
20240521160818 80 233 4.0 12.0 0.00 0.00 0.00 75 1007.9
20240521160316 80 223 4.0 12.0 0.00 0.00 0.00 75 1008.1
20240521155818 80 248 5.0 9.0 0.00 0.00 0.00 75 1007.9
20240521155316 80 190 3.0 11.0 0.00 0.00 0.00 75 1007.8
20240521154819 80 258 3.0 11.0 0.00 0.00 0.00 75 1008.0
20240521154316 80 169 5.0 12.0 0.00 0.00 0.00 74 1007.9
20240521153817 80 212 6.0 15.0 0.00 0.00 0.00 74 1007.8
20240521153317 80 254 6.0 17.0 0.00 0.00 0.00 74 1008.1
20240521152819 80 141 8.0 17.0 0.00 0.00 0.00 73 1007.9
20240521152315 80 247 6.0 12.0 0.00 0.00 0.00 73 1008.1
20240521151816 80 161 5.0 11.0 0.00 0.00 0.00 74 1008.0
20240521151321 80 245 5.0 16.0 0.00 0.00 0.00 74 1008.2
20240521150815 80 283 5.0 17.0 0.00 0.00 0.00 74 1008.2
20240521150315 80 200 4.0 17.0 0.00 0.00 0.00 74 1008.1
20240521145815 80 245 7.0 14.0 0.00 0.00 0.00 74 1008.3
20240521145316 80 223 6.0 16.0 0.00 0.00 0.00 74 1008.1
20240521144815 80 209 7.0 16.0 0.00 0.00 0.00 74 1008.0
20240521144314 80 240 6.0 17.0 0.00 0.00 0.00 74 1007.8
20240521143821 80 214 6.0 21.0 0.00 0.00 0.00 74 1007.4
20240521143315 80 178 8.0 21.0 0.00 0.00 0.00 74 1007.2
20240521142813 80 202 8.0 24.0 0.00 0.00 0.00 75 1007.0
20240521142314 80 220 7.0 24.0 0.00 0.00 0.00 75 1006.9
20240521141821 80 158 9.0 18.0 0.00 0.00 0.00 75 1006.8
20240521141313 80 269 9.0 16.0 0.00 0.00 0.00 75 1006.7
20240521140814 79 176 7.0 16.0 0.00 0.00 0.00 76 1006.7
20240521140313 79 226 8.0 20.0 0.00 0.00 0.00 76 1006.9
20240521135812 79 285 9.0 20.0 0.00 0.00 0.00 76 1006.7
20240521135311 79 234 8.0 19.0 0.00 0.00 0.00 76 1006.6
20240521134811 79 228 8.0 19.0 0.00 0.00 0.00 76 1006.6
20240521134311 79 140 7.0 19.0 0.00 0.00 0.00 76 1006.6
20240521133807 79 169 6.0 15.0 0.00 0.00 0.00 77 1006.5
20240521133306 78 147 6.0 19.0 0.00 0.00 0.00 77 1006.6
20240521132805 78 183 7.0 19.0 0.00 0.00 0.00 77 1006.5
20240521132304 78 144 6.0 14.0 0.00 0.00 0.00 77 1006.5
20240521132114 78 185 7.0 19.0 0.00 0.00 0.00 77 1006.6
20240521131304 78 164 8.0 19.0 0.00 0.00 0.00 77 1006.6
20240521131117 78 103 8.0 17.0 0.00 0.00 0.00 77 1006.6
20240521130304 78 214 5.0 13.0 0.00 0.00 0.00 77 1006.8
20240521125807 77 196 6.0 17.0 0.00 0.00 0.00 77 1006.8
20240521125305 77 223 6.0 17.0 0.00 0.00 0.00 77 1006.7
20240521124806 77 182 4.0 13.0 0.00 0.00 0.00 76 1006.6
20240521124302 77 237 6.0 18.0 0.00 0.00 0.00 76 1006.6
20240521123805 77 195 8.0 18.0 0.00 0.00 0.00 76 1006.6
20240521123304 77 203 5.0 13.0 0.00 0.00 0.00 76 1006.3
20240521122804 77 168 5.0 15.0 0.00 0.00 0.00 76 1006.4
20240521122302 77 206 6.0 15.0 0.00 0.00 0.00 76 1006.4
20240521120806 77 165 5.0 13.0 0.00 0.00 0.00 74 1006.5
20240521120303 77 259 5.0 19.0 0.00 0.00 0.00 74 1006.6
20240521115804 77 299 7.0 19.0 0.00 0.00 0.00 74 1006.5
20240521115618 77 210 7.0 18.0 0.00 0.00 0.00 75 1006.4
20240521114806 77 224 8.0 18.0 0.00 0.00 0.00 75 1006.4
20240521114302 77 228 8.0 19.0 0.00 0.00 0.00 75 1006.2
20240521113803 77 173 9.0 19.0 0.00 0.00 0.00 75 1006.1
20240521113302 77 197 7.0 17.0 0.00 0.00 0.00 74 1006.0
20240521112803 77 189 9.0 18.0 0.00 0.00 0.00 75 1005.9
20240521112302 77 144 7.0 19.0 0.00 0.00 0.00 75 1005.9
20240521111804 77 195 6.0 19.0 0.00 0.00 0.00 75 1005.7
20240521111303 77 190 6.0 19.0 0.00 0.00 0.00 75 1005.8
20240521110804 77 212 7.0 14.0 0.00 0.00 0.00 76 1005.9
20240521110304 77 185 8.0 18.0 0.00 0.00 0.00 76 1005.9
20240521105804 77 212 10.0 23.0 0.00 0.00 0.00 77 1005.8
20240521105302 77 161 13.0 23.0 0.00 0.00 0.00 77 1005.6
20240521104805 77 221 10.0 19.0 0.00 0.00 0.00 78 1005.7
20240521104302 77 220 6.0 18.0 0.00 0.00 0.00 78 1005.9
20240521103903 77 202 6.0 20.0 0.00 0.00 0.00 78 1006.0
20240521102804 77 207 12.0 22.0 0.00 0.00 0.00 78 1005.9
20240521102604 77 193 8.0 17.0 0.00 0.00 0.00 79 1005.9
20240521101805 77 165 7.0 17.0 0.00 0.00 0.00 79 1005.8
20240521101302 77 200 8.0 24.0 0.00 0.00 0.00 79 1005.9
20240521100803 77 142 10.0 24.0 0.00 0.00 0.00 79 1006.0
20240521100407 76 238 9.0 20.0 0.00 0.00 0.00 79 1006.0
20240521095302 76 185 7.0 18.0 0.00 0.00 0.00 80 1005.9
20240521094804 76 180 8.0 15.0 0.00 0.00 0.00 80 1006.0
20240521094302 76 202 8.0 15.0 0.00 0.00 0.00 79 1005.9
20240521093803 76 192 7.0 15.0 0.00 0.00 0.00 79 1006.0
20240521093302 76 147 6.0 14.0 0.00 0.00 0.00 79 1006.1
20240521092803 77 210 6.0 16.0 0.00 0.00 0.00 79 1006.1
20240521092303 77 162 9.0 17.0 0.00 0.00 0.00 78 1006.1
20240521091804 77 162 6.0 17.0 0.00 0.00 0.00 78 1006.0
20240521091303 77 193 6.0 15.0 0.00 0.00 0.00 78 1006.1
20240521090804 77 175 8.0 15.0 0.00 0.00 0.00 77 1006.0
20240521090303 77 228 9.0 19.0 0.00 0.00 0.00 77 1005.8
20240521085805 77 166 9.0 20.0 0.00 0.00 0.00 77 1005.7
20240521085611 77 220 7.0 20.0 0.00 0.00 0.00 76 1005.6
20240521084804 77 204 7.0 18.0 0.00 0.00 0.00 76 1005.7
20240521084603 77 212 9.0 18.0 0.00 0.00 0.00 76 1005.7
20240521083805 77 144 7.0 17.0 0.00 0.00 0.00 76 1005.7
20240521083304 78 183 5.0 15.0 0.00 0.00 0.00 76 1005.7
20240521082803 78 172 8.0 15.0 0.00 0.00 0.00 76 1005.7
20240521082302 78 148 7.0 18.0 0.00 0.00 0.00 76 1005.7
20240521081803 78 226 10.0 18.0 0.00 0.00 0.00 75 1005.8
20240521081302 78 237 8.0 18.0 0.00 0.00 0.00 75 1005.8
20240521081122 78 140 6.0 16.0 0.00 0.00 0.00 75 1005.9
20240521080304 78 197 8.0 18.0 0.00 0.00 0.00 74 1005.8
20240521075803 78 188 7.0 18.0 0.00 0.00 0.00 74 1005.8
20240521075302 79 178 9.0 20.0 0.00 0.00 0.00 74 1005.9
20240521074803 79 183 7.0 20.0 0.00 0.00 0.00 74 1006.0
20240521074303 79 200 9.0 20.0 0.00 0.00 0.00 73 1005.9
20240521073804 79 196 9.0 20.0 0.00 0.00 0.00 73 1005.9
20240521073304 79 142 8.0 18.0 0.00 0.00 0.00 72 1005.9
20240521072808 79 189 7.0 19.0 0.00 0.00 0.00 72 1005.8
20240521072304 80 197 9.0 20.0 0.00 0.00 0.00 71 1005.9
20240521072106 80 159 7.0 20.0 0.00 0.00 0.00 71 1005.8
20240521071302 80 223 8.0 16.0 0.00 0.00 0.00 70 1006.0
20240521070806 80 226 7.0 16.0 0.00 0.00 0.00 70 1005.9
20240521070302 80 188 7.0 17.0 0.00 0.00 0.00 69 1006.0
20240521070114 80 162 7.0 19.0 0.00 0.00 0.00 69 1006.1
20240521065304 80 178 8.0 19.0 0.00 0.00 0.00 68 1006.0
20240521064805 80 155 7.0 16.0 0.00 0.00 0.00 68 1006.0
20240521064302 80 182 10.0 16.0 0.00 0.00 0.00 68 1006.1
20240521063803 81 206 6.0 18.0 0.00 0.00 0.00 67 1006.1
20240521063617 81 185 8.0 18.0 0.00 0.00 0.00 67 1006.2
20240521062803 81 175 8.0 16.0 0.00 0.00 0.00 67 1006.3
20240521062612 81 213 8.0 16.0 0.00 0.00 0.00 66 1006.3
20240521061956 81 182 8.0 15.0 0.00 0.00 0.00 66 1006.3
20240521060619 81 189 7.0 17.0 0.00 0.00 0.00 65 1006.4
20240521060114 81 202 5.0 17.0 0.00 0.00 0.00 65 1006.5
20240521055303 81 216 8.0 14.0 0.00 0.00 0.00 65 1006.5
20240521054804 82 166 6.0 16.0 0.00 0.00 0.00 65 1006.4
20240521054302 82 255 9.0 16.0 0.00 0.00 0.00 64 1006.3
20240521053803 82 231 7.0 15.0 0.00 0.00 0.00 64 1006.4
20240521053303 82 173 4.0 13.0 0.00 0.00 0.00 64 1006.5
20240521052803 82 195 4.0 12.0 0.00 0.00 0.00 64 1006.4
20240521052302 82 162 5.0 12.0 0.00 0.00 0.00 64 1006.7
20240521051803 82 172 4.0 13.0 0.00 0.00 0.00 64 1006.7
20240521051301 82 204 4.0 13.0 0.00 0.00 0.00 64 1006.6
20240521051127 82 210 5.0 15.0 0.00 0.00 0.00 63 1006.7
20240521050304 82 152 6.0 15.0 0.00 0.00 0.00 63 1006.6
20240521050122 82 155 7.0 14.0 0.00 0.00 0.00 63 1006.6
20240521045303 82 180 4.0 10.0 0.00 0.00 0.00 63 1006.8
20240521044803 82 219 5.0 14.0 0.00 0.00 0.00 62 1006.8
20240521044301 82 179 7.0 14.0 0.00 0.00 0.00 62 1007.0
20240521043802 82 124 6.0 14.0 0.00 0.00 0.00 62 1007.0
20240521043300 82 190 6.0 15.0 0.00 0.00 0.00 62 1007.1
20240521042803 83 240 7.0 15.0 0.00 0.00 0.00 62 1007.0
20240521042741 83 172 7.0 15.0 0.00 0.00 0.00 62 1007.0
20240521041300 83 192 6.0 14.0 0.00 0.00 0.00 62 1007.0
20240521040801 83 161 5.0 14.0 0.00 0.00 0.00 61 1007.0
20240521040300 83 190 6.0 16.0 0.00 0.00 0.00 61 1007.0
20240521035854 83 179 5.0 16.0 0.00 0.00 0.00 61 1007.0
20240521034801 83 154 5.0 13.0 0.00 0.00 0.00 61 1007.0
20240521034301 83 193 7.0 13.0 0.00 0.00 0.00 60 1007.0
20240521033802 83 165 5.0 11.0 0.00 0.00 0.00 60 1007.1
20240521033611 83 161 5.0 14.0 0.00 0.00 0.00 60 1007.2
20240521032800 83 178 4.0 14.0 0.00 0.00 0.00 60 1007.1
20240521032258 83 228 5.0 12.0 0.00 0.00 0.00 59 1007.1
20240521031802 83 138 6.0 13.0 0.00 0.00 0.00 59 1007.1
20240521031259 83 166 6.0 13.0 0.00 0.00 0.00 59 1007.0
20240521030804 83 171 6.0 14.0 0.00 0.00 0.00 59 1007.0
20240521030258 84 190 6.0 14.0 0.00 0.00 0.00 58 1006.8
20240521025802 84 235 4.0 12.0 0.00 0.00 0.00 58 1006.7
20240521025258 84 168 5.0 12.0 0.00 0.00 0.00 58 1006.6
20240521024800 84 189 5.0 12.0 0.00 0.00 0.00 58 1006.6
20240521024258 84 152 6.0 14.0 0.00 0.00 0.00 58 1006.6
20240521023800 84 199 7.0 14.0 0.00 0.00 0.00 58 1006.6
20240521023610 84 213 6.0 13.0 0.00 0.00 0.00 58 1006.5
20240521022759 84 212 6.0 14.0 0.00 0.00 0.00 58 1006.5
20240521022257 85 155 6.0 19.0 0.00 0.00 0.00 58 1006.5
20240521021801 85 151 4.0 19.0 0.00 0.00 0.00 58 1006.5
20240521021257 85 178 6.0 15.0 0.00 0.00 0.00 58 1006.5
20240521020758 85 182 7.0 16.0 0.00 0.00 0.00 58 1006.5
20240521020257 85 179 7.0 16.0 0.00 0.00 0.00 58 1006.4
20240521015759 85 185 5.0 14.0 0.00 0.00 0.00 58 1006.3
20240521015258 85 190 5.0 18.0 0.00 0.00 0.00 58 1006.4
20240521015113 85 186 7.0 18.0 0.00 0.00 0.00 57 1006.4
20240521014256 85 171 6.0 16.0 0.00 0.00 0.00 57 1006.3
20240521013759 85 161 7.0 16.0 0.00 0.00 0.00 57 1006.3
20240521013256 86 134 5.0 12.0 0.00 0.00 0.00 56 1006.2
20240521013119 86 196 6.0 14.0 0.00 0.00 0.00 56 1006.2
20240521012256 86 214 7.0 16.0 0.00 0.00 0.00 55 1006.2
20240521011757 86 206 7.0 16.0 0.00 0.00 0.00 55 1006.2
20240521011255 86 176 6.0 14.0 0.00 0.00 0.00 55 1006.2
20240521010757 86 176 5.0 13.0 0.00 0.00 0.00 55 1006.1
20240521010256 86 173 7.0 12.0 0.00 0.00 0.00 54 1006.1
20240521010112 87 203 4.0 16.0 0.00 0.00 0.00 54 1006.1
20240521005256 87 158 9.0 16.0 0.00 0.00 0.00 54 1006.0
20240521004756 87 216 8.0 17.0 0.00 0.00 0.00 54 1006.0
20240521004255 87 176 8.0 17.0 0.00 0.00 0.00 53 1006.2
20240521004112 87 204 7.0 12.0 0.00 0.00 0.00 53 1006.0
20240521003255 87 235 5.0 12.0 0.00 0.00 0.00 53 1005.8
20240521002756 87 161 3.0 12.0 0.00 0.00 0.00 52 1005.8
20240521002254 87 221 5.0 12.0 0.00 0.00 0.00 52 1005.9
20240521001756 88 193 6.0 13.0 0.00 0.00 0.00 52 1005.9
20240521001254 88 161 8.0 14.0 0.00 0.00 0.00 51 1005.9
20240521000756 88 189 6.0 15.0 0.00 0.00 0.00 50 1005.8
20240521000254 88 180 8.0 15.0 0.00 0.00 0.00 50 1005.7
20240520235807 89 183 5.0 13.0 0.00 0.00 0.00 50 1005.8
20240520235800 89 176 9.0 15.0 0.00 0.00 0.00 50 1005.8
20240520234253 89 199 5.0 15.0 0.00 0.00 0.00 50 1005.9
20240520233904 89 172 5.0 15.0 0.00 0.00 0.00 50 1005.9
20240520232756 89 157 6.0 16.0 0.00 0.00 0.00 48 1006.0
20240520232254 90 183 8.0 17.0 0.00 0.00 0.00 48 1006.0
20240520231756 90 200 7.0 17.0 0.00 0.00 0.00 48 1005.8
20240520231252 90 161 5.0 13.0 0.00 0.00 0.00 48 1005.9
20240520230755 90 233 6.0 15.0 0.00 0.00 0.00 48 1006.0
20240520230255 90 219 6.0 15.0 0.00 0.00 0.00 48 1006.0
20240520225755 90 166 7.0 16.0 0.00 0.00 0.00 48 1006.0
20240520225253 90 155 6.0 17.0 0.00 0.00 0.00 47 1006.0
20240520225110 90 179 8.0 17.0 0.00 0.00 0.00 47 1006.0
20240520224604 90 182 8.0 17.0 0.00 0.00 0.00 47 1006.0
20240520224108 90 176 8.0 17.0 0.00 0.00 0.00 47 1006.0
20240520223253 90 214 7.0 15.0 0.00 0.00 0.00 48 1006.0
20240520222755 90 138 7.0 15.0 0.00 0.00 0.00 47 1006.0
20240520222252 90 159 7.0 15.0 0.00 0.00 0.00 47 1006.1
20240520221753 90 180 8.0 18.0 0.00 0.00 0.00 46 1006.0
20240520221252 91 189 9.0 18.0 0.00 0.00 0.00 45 1005.9
20240520220754 91 166 8.0 18.0 0.00 0.00 0.00 45 1006.0
20240520220604 91 157 7.0 18.0 0.00 0.00 0.00 45 1006.1
20240520215752 91 175 10.0 18.0 0.00 0.00 0.00 45 1006.1
20240520215251 91 210 6.0 17.0 0.00 0.00 0.00 45 1006.0
20240520214752 91 195 7.0 17.0 0.00 0.00 0.00 44 1006.1
20240520214355 91 175 6.0 16.0 0.00 0.00 0.00 45 1006.1
20240520213251 91 138 5.0 17.0 0.00 0.00 0.00 45 1006.2
20240520213109 91 180 8.0 17.0 0.00 0.00 0.00 44 1006.3
20240520212251 91 178 8.0 16.0 0.00 0.00 0.00 43 1006.4
20240520211752 91 200 7.0 18.0 0.00 0.00 0.00 43 1006.3
20240520211253 91 135 8.0 18.0 0.00 0.00 0.00 44 1006.4
20240520210751 91 190 9.0 17.0 0.00 0.00 0.00 44 1006.3
20240520210253 91 169 4.0 17.0 0.00 0.00 0.00 44 1006.5
20240520205751 91 134 8.0 18.0 0.00 0.00 0.00 43 1006.6
20240520205250 91 213 7.0 18.0 0.00 0.00 0.00 43 1006.7
20240520204750 91 190 7.0 19.0 0.00 0.00 0.00 44 1006.8
20240520204249 91 195 8.0 19.0 0.00 0.00 0.00 43 1006.8
20240520203753 91 241 6.0 18.0 0.00 0.00 0.00 43 1006.9
20240520203249 91 172 6.0 18.0 0.00 0.00 0.00 43 1006.9
20240520202751 90 255 8.0 18.0 0.00 0.00 0.00 42 1007.0
20240520202249 91 152 9.0 19.0 0.00 0.00 0.00 42 1007.3
20240520201750 91 183 10.0 19.0 0.00 0.00 0.00 43 1007.3
20240520201250 91 212 7.0 17.0 0.00 0.00 0.00 43 1007.4
20240520200750 91 173 6.0 17.0 0.00 0.00 0.00 43 1007.6
20240520200248 91 151 6.0 17.0 0.00 0.00 0.00 44 1007.5
20240520195751 91 200 7.0 18.0 0.00 0.00 0.00 44 1007.6
20240520195249 91 165 8.0 18.0 0.00 0.00 0.00 44 1007.6
20240520194751 91 176 6.0 16.0 0.00 0.00 0.00 43 1007.6
20240520194248 91 219 7.0 18.0 0.00 0.00 0.00 43 1007.6
20240520193750 91 188 9.0 19.0 0.00 0.00 0.00 43 1007.7
20240520193247 91 140 6.0 19.0 0.00 0.00 0.00 45 1007.8
20240520192749 90 175 5.0 16.0 0.00 0.00 0.00 45 1007.8
20240520192248 90 213 9.0 16.0 0.00 0.00 0.00 44 1007.9
20240520191753 90 113 7.0 21.0 0.00 0.00 0.00 44 1007.8
20240520191249 90 169 10.0 21.0 0.00 0.00 0.00 44 1008.0
20240520190752 90 219 6.0 17.0 0.00 0.00 0.00 45 1008.1
20240520190248 90 271 6.0 17.0 0.00 0.00 0.00 45 1008.1
20240520185750 89 148 8.0 17.0 0.00 0.00 0.00 45 1008.3
20240520185249 89 221 9.0 16.0 0.00 0.00 0.00 46 1008.3
20240520184749 89 131 6.0 15.0 0.00 0.00 0.00 46 1008.3
20240520184604 89 182 8.0 15.0 0.00 0.00 0.00 45 1008.4
20240520183749 89 193 9.0 17.0 0.00 0.00 0.00 45 1008.4
20240520183248 89 206 5.0 17.0 0.00 0.00 0.00 47 1008.4
20240520182749 89 82 7.0 13.0 0.00 0.00 0.00 46 1008.4
20240520182248 89 197 6.0 22.0 0.00 0.00 0.00 46 1008.6
20240520181749 88 196 8.0 22.0 0.00 0.00 0.00 45 1008.6
20240520181246 88 176 6.0 18.0 0.00 0.00 0.00 47 1008.7
20240520180749 88 159 9.0 17.0 0.00 0.00 0.00 47 1008.8
20240520180248 88 164 9.0 16.0 0.00 0.00 0.00 47 1008.8
20240520175749 88 173 8.0 17.0 0.00 0.00 0.00 47 1008.7
20240520175602 88 151 6.0 17.0 0.00 0.00 0.00 48 1008.8
20240520174747 88 165 7.0 17.0 0.00 0.00 0.00 47 1008.9
20240520174246 88 213 9.0 18.0 0.00 0.00 0.00 47 1009.0
20240520173748 88 195 9.0 18.0 0.00 0.00 0.00 47 1009.0
20240520173246 87 195 6.0 18.0 0.00 0.00 0.00 48 1009.0
20240520172747 87 220 7.0 21.0 0.00 0.00 0.00 48 1009.0
20240520172245 87 169 10.0 21.0 0.00 0.00 0.00 47 1009.2
20240520171746 87 282 7.0 22.0 0.00 0.00 0.00 47 1009.2
20240520171245 87 247 8.0 22.0 0.00 0.00 0.00 47 1009.2
20240520170745 87 220 7.0 18.0 0.00 0.00 0.00 48 1009.2
20240520170244 87 182 6.0 18.0 0.00 0.00 0.00 48 1009.2
20240520165746 87 212 8.0 28.0 0.00 0.00 0.00 48 1009.3
20240520165550 86 231 9.0 28.0 0.00 0.00 0.00 48 1009.2
20240520164747 86 221 9.0 18.0 0.00 0.00 0.00 48 1009.3
20240520164605 86 230 10.0 18.0 0.00 0.00 0.00 49 1009.2
20240520163745 86 175 6.0 18.0 0.00 0.00 0.00 49 1009.3
20240520163244 86 204 7.0 20.0 0.00 0.00 0.00 49 1009.4
20240520162746 85 189 8.0 20.0 0.00 0.00 0.00 49 1009.4
20240520162559 85 186 6.0 16.0 0.00 0.00 0.00 51 1009.3